Time,TemperatureF,DewpointF,PressureIn,WindDirection,WindDirectionDegrees,WindSpeedMPH,WindSpeedGustMPH,Humidity,HourlyPrecipIn,Conditions,Clouds,dailyrainin,SolarRadiationWatts/m^2,SoftwareType,DateUTC
2013-09-15 00:01:00,82.6,75.8,29.98,ESE,117,0.0,3.0,80,0.00,,FEW021,0.00,0.00,VWS V14.01,2013-09-15 04:01:00,
2013-09-15 00:02:00,82.6,75.8,29.98,ESE,119,2.0,2.0,80,0.00,,FEW021,0.00,0.00,VWS V14.01,2013-09-15 04:02:00,
2013-09-15 00:07:00,83.5,76.7,29.98,ENE,70,1.0,2.0,80,0.00,,FEW021,0.00,0.00,VWS V14.01,2013-09-15 04:07:00,
2013-09-15 00:12:00,83.5,76.7,29.98,ENE,70,1.0,1.0,80,0.00,,FEW021,0.00,0.00,VWS V14.01,2013-09-15 04:12:00,
2013-09-15 00:17:00,83.6,76.4,29.98,ENE,62,0.0,1.0,79,0.00,,FEW021,0.00,0.00,VWS V14.01,2013-09-15 04:17:00,
2013-09-15 00:22:00,83.7,76.9,29.98,NE,52,1.0,3.0,80,0.00,,FEW021,0.00,0.00,VWS V14.01,2013-09-15 04:22:00,
2013-09-15 00:27:00,83.8,77.0,29.98,ESE,108,1.0,2.0,80,0.00,,FEW021,0.00,0.00,VWS V14.01,2013-09-15 04:27:00,
2013-09-15 00:32:00,83.9,77.1,29.98,ESE,115,8.0,8.0,80,0.00,,FEW021,0.00,0.00,VWS V14.01,2013-09-15 04:32:00,
2013-09-15 00:37:00,83.3,76.1,29.98,South,176,4.0,7.0,79,0.00,,FEW021,0.00,0.00,VWS V14.01,2013-09-15 04:37:00,
2013-09-15 00:42:00,82.8,76.4,29.98,SW,217,1.0,7.0,81,0.00,,FEW021,0.00,0.00,VWS V14.01,2013-09-15 04:42:00,
2013-09-15 00:47:00,82.4,77.4,29.97,SW,223,1.0,2.0,85,0.01,,FEW021,0.01,0.00,VWS V14.01,2013-09-15 04:47:00,
2013-09-15 00:52:00,82.3,77.3,29.97,SSE,167,0.0,0.0,85,0.01,,FEW021,0.01,0.00,VWS V14.01,2013-09-15 04:52:00,
2013-09-15 00:57:00,81.8,77.2,29.99,SSE,152,8.0,14.0,86,0.03,,FEW021,0.03,0.00,VWS V14.01,2013-09-15 04:57:00,
2013-09-15 01:02:00,80.1,75.2,29.99,South,186,0.0,6.0,85,0.12,,FEW021,0.12,0.00,VWS V14.01,2013-09-15 05:02:00,
2013-09-15 01:07:00,79.3,75.1,29.99,ENE,72,0.0,2.0,87,0.12,,FEW021,0.12,0.00,VWS V14.01,2013-09-15 05:07:00,
2013-09-15 01:12:00,78.9,75.1,29.99,ENE,72,0.0,0.0,88,0.12,,FEW021,0.12,0.00,VWS V14.01,2013-09-15 05:12:00,
2013-09-15 01:17:00,78.9,75.7,29.98,NE,40,3.0,5.0,90,0.12,,FEW021,0.12,0.00,VWS V14.01,2013-09-15 05:17:00,
2013-09-15 01:22:00,78.6,75.8,29.98,NE,36,4.0,6.0,91,0.12,,FEW021,0.12,0.00,VWS V14.01,2013-09-15 05:22:00,
2013-09-15 01:26:00,78.5,76.0,29.98,NE,46,0.0,4.0,92,0.12,,FEW021,0.12,0.00,VWS V14.01,2013-09-15 05:26:00,
2013-09-15 01:31:00,78.8,76.3,29.97,NE,46,0.0,1.0,92,0.12,,FEW021,0.12,0.00,VWS V14.01,2013-09-15 05:31:00,
2013-09-15 01:36:00,79.0,76.5,29.97,NE,46,0.0,0.0,92,0.12,,FEW021,0.12,0.00,VWS V14.01,2013-09-15 05:36:00,
2013-09-15 01:41:00,79.0,76.5,29.97,NE,46,0.0,0.0,92,0.13,,FEW021,0.13,0.00,VWS V14.01,2013-09-15 05:41:00,
2013-09-15 01:46:00,78.9,76.4,29.97,NE,46,0.0,0.0,92,0.12,,FEW021,0.13,0.00,VWS V14.01,2013-09-15 05:46:00,
2013-09-15 01:51:00,78.8,76.3,29.97,NNW,344,3.0,4.0,92,0.12,,FEW021,0.13,0.00,VWS V14.01,2013-09-15 05:51:00,
2013-09-15 01:56:00,78.7,76.2,29.98,NW,325,4.0,6.0,92,0.12,,FEW021,0.13,0.00,VWS V14.01,2013-09-15 05:56:00,
2013-09-15 02:01:00,78.5,76.3,29.98,NNW,330,2.0,3.0,93,0.10,,FEW021,0.13,0.00,VWS V14.01,2013-09-15 06:01:00,
2013-09-15 02:06:00,78.4,76.2,29.97,NNW,330,0.0,0.0,93,0.01,,FEW021,0.13,0.00,VWS V14.01,2013-09-15 06:06:00,
2013-09-15 02:11:00,78.2,76.0,29.97,NNW,330,0.0,1.0,93,0.01,,FEW021,0.13,0.00,VWS V14.01,2013-09-15 06:11:00,
2013-09-15 02:16:00,78.1,76.2,29.96,NNW,330,0.0,1.0,94,0.01,,FEW021,0.13,0.00,VWS V14.01,2013-09-15 06:16:00,
2013-09-15 02:21:00,78.0,76.1,29.95,NNW,342,0.0,0.0,94,0.01,,FEW021,0.13,0.00,VWS V14.01,2013-09-15 06:21:00,
2013-09-15 02:26:00,78.0,76.1,29.95,NNW,342,2.0,3.0,94,0.01,,FEW021,0.13,0.00,VWS V14.01,2013-09-15 06:26:00,
2013-09-15 02:31:00,78.1,76.2,29.95,NNW,342,2.0,3.0,94,0.01,,FEW021,0.13,0.00,VWS V14.01,2013-09-15 06:31:00,
2013-09-15 02:36:00,78.1,76.2,29.95,NNW,342,0.0,0.0,94,0.01,,FEW021,0.13,0.00,VWS V14.01,2013-09-15 06:36:00,
2013-09-15 02:41:00,78.2,76.3,29.95,NE,40,2.0,3.0,94,0.01,,FEW021,0.13,0.00,VWS V14.01,2013-09-15 06:41:00,
2013-09-15 02:46:00,78.3,76.8,29.95,NE,40,2.0,3.0,95,0.00,,FEW021,0.13,0.00,VWS V14.01,2013-09-15 06:46:00,
2013-09-15 02:51:00,78.5,76.9,29.95,NNE,26,1.0,4.0,95,0.00,,FEW021,0.13,0.00,VWS V14.01,2013-09-15 06:51:00,
2013-09-15 02:56:00,78.6,77.1,29.95,NE,38,2.0,5.0,95,0.00,,FEW021,0.13,0.00,VWS V14.01,2013-09-15 06:56:00,
2013-09-15 03:01:00,78.9,77.3,29.95,NE,38,0.0,1.0,95,0.00,,FEW021,0.13,0.00,VWS V14.01,2013-09-15 07:01:00,
2013-09-15 03:06:00,79.0,77.4,29.94,NE,38,0.0,1.0,95,0.00,,FEW021,0.13,0.00,VWS V14.01,2013-09-15 07:06:00,
2013-09-15 03:11:00,79.0,77.4,29.95,NE,38,0.0,0.0,95,0.00,,FEW021,0.13,0.00,VWS V14.01,2013-09-15 07:11:00,
2013-09-15 03:16:00,79.0,77.4,29.94,NE,38,0.0,0.0,95,0.00,,FEW021,0.13,0.00,VWS V14.01,2013-09-15 07:16:00,
2013-09-15 03:21:00,79.0,77.4,29.94,NE,38,0.0,0.0,95,0.00,,FEW021,0.13,0.00,VWS V14.01,2013-09-15 07:21:00,
2013-09-15 03:26:00,79.0,77.4,29.94,NE,38,0.0,0.0,95,0.00,,FEW021,0.13,0.00,VWS V14.01,2013-09-15 07:26:00,
2013-09-15 03:31:00,78.9,77.3,29.94,NE,38,0.0,0.0,95,0.00,,FEW021,0.13,0.00,VWS V14.01,2013-09-15 07:31:00,
2013-09-15 03:36:00,78.9,77.3,29.94,NE,38,0.0,1.0,95,0.00,,FEW021,0.13,0.00,VWS V14.01,2013-09-15 07:36:00,
2013-09-15 03:41:00,78.8,77.2,29.94,NE,38,0.0,1.0,95,0.00,,FEW021,0.13,0.00,VWS V14.01,2013-09-15 07:41:00,
2013-09-15 03:46:00,78.7,77.2,29.94,NE,38,0.0,1.0,95,0.00,,FEW021,0.13,0.00,VWS V14.01,2013-09-15 07:46:00,
2013-09-15 03:51:00,78.7,77.2,29.94,NE,38,1.0,3.0,95,0.00,,FEW021,0.13,0.00,VWS V14.01,2013-09-15 07:51:00,
2013-09-15 03:56:00,78.7,77.2,29.94,NE,38,0.0,0.0,95,0.00,,FEW021,0.13,0.00,VWS V14.01,2013-09-15 07:56:00,
2013-09-15 04:01:00,78.7,76.8,29.93,NE,38,0.0,0.0,94,0.00,,FEW021,0.13,0.00,VWS V14.01,2013-09-15 08:01:00,
2013-09-15 04:06:00,78.6,76.7,29.93,NE,38,0.0,0.0,94,0.00,,FEW021,0.13,0.00,VWS V14.01,2013-09-15 08:06:00,
2013-09-15 04:11:00,78.5,76.6,29.93,NE,38,1.0,2.0,94,0.00,,FEW021,0.13,0.00,VWS V14.01,2013-09-15 08:11:00,
2013-09-15 04:16:00,78.3,76.4,29.93,NE,38,0.0,0.0,94,0.00,,FEW021,0.13,0.00,VWS V14.01,2013-09-15 08:16:00,
2013-09-15 04:21:00,78.3,76.4,29.93,NE,38,0.0,1.0,94,0.00,,FEW021,0.13,0.00,VWS V14.01,2013-09-15 08:21:00,
2013-09-15 04:26:00,78.2,76.3,29.93,NE,38,1.0,2.0,94,0.00,,FEW021,0.13,0.00,VWS V14.01,2013-09-15 08:26:00,
2013-09-15 04:31:00,78.3,76.4,29.93,NE,38,0.0,1.0,94,0.00,,FEW021,0.13,0.00,VWS V14.01,2013-09-15 08:31:00,
2013-09-15 04:36:00,78.4,76.5,29.94,NE,38,0.0,0.0,94,0.00,,FEW021,0.13,0.00,VWS V14.01,2013-09-15 08:36:00,
2013-09-15 04:41:00,78.5,76.9,29.94,NE,38,0.0,1.0,95,0.00,,FEW021,0.13,0.00,VWS V14.01,2013-09-15 08:41:00,
2013-09-15 04:46:00,78.5,76.9,29.94,NE,38,1.0,2.0,95,0.00,,FEW021,0.13,0.00,VWS V14.01,2013-09-15 08:46:00,
2013-09-15 04:51:00,78.6,77.1,29.94,NE,38,0.0,1.0,95,0.00,,FEW021,0.13,0.00,VWS V14.01,2013-09-15 08:51:00,
2013-09-15 04:56:00,78.6,77.1,29.94,NE,38,0.0,0.0,95,0.00,,FEW021,0.13,0.00,VWS V14.01,2013-09-15 08:56:00,
2013-09-15 05:01:00,78.6,77.1,29.94,NE,38,0.0,1.0,95,0.00,,FEW021,0.13,0.00,VWS V14.01,2013-09-15 09:01:00,
2013-09-15 05:06:00,78.6,77.1,29.94,NE,38,1.0,1.0,95,0.00,,FEW021,0.13,0.00,VWS V14.01,2013-09-15 09:06:00,
2013-09-15 05:11:00,78.6,77.1,29.94,NE,38,0.0,2.0,95,0.00,,FEW021,0.13,0.00,VWS V14.01,2013-09-15 09:11:00,
2013-09-15 05:16:00,78.6,77.1,29.94,NE,43,2.0,3.0,95,0.00,,FEW021,0.13,0.00,VWS V14.01,2013-09-15 09:16:00,
2013-09-15 05:21:00,78.6,77.1,29.94,NNE,30,0.0,2.0,95,0.00,,FEW021,0.13,0.00,VWS V14.01,2013-09-15 09:21:00,
2013-09-15 05:26:00,78.6,77.1,29.95,NNE,30,1.0,3.0,95,0.00,,FEW021,0.13,0.00,VWS V14.01,2013-09-15 09:26:00,
2013-09-15 05:31:00,78.6,77.1,29.95,NNE,30,1.0,2.0,95,0.00,,FEW021,0.13,0.00,VWS V14.01,2013-09-15 09:31:00,
2013-09-15 05:36:00,78.6,77.1,29.95,NNE,30,0.0,1.0,95,0.00,,FEW021,0.13,0.00,VWS V14.01,2013-09-15 09:36:00,
2013-09-15 05:41:00,78.6,77.1,29.95,NNE,30,0.0,0.0,95,0.00,,FEW021,0.13,0.00,VWS V14.01,2013-09-15 09:41:00,
2013-09-15 05:46:00,78.6,77.1,29.95,NNE,30,0.0,1.0,95,0.00,,FEW021,0.13,0.00,VWS V14.01,2013-09-15 09:46:00,
2013-09-15 05:51:00,78.6,77.1,29.95,NNE,30,0.0,0.0,95,0.00,,FEW021,0.13,0.00,VWS V14.01,2013-09-15 09:51:00,
2013-09-15 05:56:00,78.5,76.9,29.95,NNE,30,0.0,0.0,95,0.00,,FEW021,0.13,0.00,VWS V14.01,2013-09-15 09:56:00,
2013-09-15 06:01:00,78.5,76.9,29.95,NNE,30,0.0,0.0,95,0.00,,FEW021,0.13,0.00,VWS V14.01,2013-09-15 10:01:00,
2013-09-15 06:06:00,78.5,76.9,29.95,NNE,30,1.0,2.0,95,0.00,,FEW021,0.13,0.00,VWS V14.01,2013-09-15 10:06:00,
2013-09-15 06:11:00,78.6,77.1,29.95,NE,38,1.0,3.0,95,0.00,,FEW021,0.13,0.00,VWS V14.01,2013-09-15 10:11:00,
2013-09-15 06:16:00,78.7,77.2,29.96,NE,36,2.0,3.0,95,0.00,,FEW021,0.13,0.00,VWS V14.01,2013-09-15 10:16:00,
2013-09-15 06:21:00,78.8,77.2,29.96,NE,36,2.0,2.0,95,0.00,,FEW021,0.13,0.00,VWS V14.01,2013-09-15 10:21:00,
2013-09-15 06:26:00,78.8,77.2,29.96,NE,38,2.0,3.0,95,0.00,,FEW021,0.13,0.00,VWS V14.01,2013-09-15 10:26:00,
2013-09-15 06:31:00,78.8,77.2,29.97,NE,34,3.0,4.0,95,0.00,,FEW021,0.13,0.00,VWS V14.01,2013-09-15 10:31:00,
2013-09-15 06:36:00,78.8,77.2,29.97,NE,38,2.0,3.0,95,0.00,,FEW021,0.13,0.00,VWS V14.01,2013-09-15 10:36:00,
2013-09-15 06:41:00,79.0,77.4,29.97,NNE,28,3.0,3.0,95,0.00,,FEW021,0.13,0.00,VWS V14.01,2013-09-15 10:41:00,
2013-09-15 06:46:00,79.0,77.4,29.98,NE,42,1.0,3.0,95,0.00,,FEW021,0.13,0.00,VWS V14.01,2013-09-15 10:46:00,
2013-09-15 06:51:00,79.1,77.6,29.98,NE,38,2.0,3.0,95,0.00,,FEW021,0.13,0.00,VWS V14.01,2013-09-15 10:51:00,
2013-09-15 06:56:00,79.1,77.6,29.98,NE,44,2.0,2.0,95,0.00,,FEW021,0.13,0.00,VWS V14.01,2013-09-15 10:56:00,
2013-09-15 07:01:00,79.1,77.6,29.98,NE,44,1.0,2.0,95,0.00,,FEW021,0.13,0.00,VWS V14.01,2013-09-15 11:01:00,
2013-09-15 07:06:00,79.1,77.6,29.98,NE,44,0.0,1.0,95,0.00,,FEW021,0.13,0.00,VWS V14.01,2013-09-15 11:06:00,
2013-09-15 07:11:00,79.0,77.4,29.98,NE,44,0.0,1.0,95,0.00,,FEW021,0.13,0.00,VWS V14.01,2013-09-15 11:11:00,
2013-09-15 07:16:00,79.0,77.4,29.98,NE,44,1.0,1.0,95,0.00,,FEW021,0.13,0.00,VWS V14.01,2013-09-15 11:16:00,
2013-09-15 07:21:00,78.9,77.3,29.98,NE,44,0.0,2.0,95,0.00,,FEW021,0.13,0.00,VWS V14.01,2013-09-15 11:21:00,
2013-09-15 07:26:00,78.9,77.3,29.98,NE,44,2.0,2.0,95,0.00,,FEW021,0.13,0.00,VWS V14.01,2013-09-15 11:26:00,
2013-09-15 07:31:00,78.9,77.3,29.98,NE,40,2.0,3.0,95,0.00,,FEW021,0.13,0.00,VWS V14.01,2013-09-15 11:31:00,
2013-09-15 07:36:00,78.9,77.3,29.98,NE,37,2.0,3.0,95,0.00,,FEW021,0.13,0.00,VWS V14.01,2013-09-15 11:36:00,
2013-09-15 07:41:00,78.9,77.3,29.98,NE,37,0.0,3.0,95,0.00,,FEW021,0.13,0.00,VWS V14.01,2013-09-15 11:41:00,
2013-09-15 07:46:00,79.0,77.4,29.98,NE,37,1.0,2.0,95,0.00,,FEW021,0.13,0.00,VWS V14.01,2013-09-15 11:46:00,
2013-09-15 07:51:00,79.2,77.7,29.98,NE,37,0.0,1.0,95,0.00,,FEW021,0.13,0.00,VWS V14.01,2013-09-15 11:51:00,
2013-09-15 07:56:00,79.8,78.2,29.98,NE,37,0.0,1.0,95,0.00,,FEW021,0.13,0.00,VWS V14.01,2013-09-15 11:56:00,
2013-09-15 08:01:00,80.5,78.9,29.98,NE,37,0.0,0.0,95,0.00,,FEW021,0.13,0.00,VWS V14.01,2013-09-15 12:01:00,
2013-09-15 08:06:00,80.9,79.0,29.99,NE,44,1.0,2.0,94,0.00,,FEW021,0.13,0.00,VWS V14.01,2013-09-15 12:06:00,
2013-09-15 08:11:00,81.1,78.9,29.99,NE,44,0.0,2.0,93,0.00,,FEW021,0.13,0.00,VWS V14.01,2013-09-15 12:11:00,
2013-09-15 08:36:00,81.1,78.2,30.00,ENE,68,1.0,3.0,91,0.00,,FEW021,0.13,0.00,VWS V14.01,2013-09-15 12:36:00,
2013-09-15 08:41:00,81.2,78.3,29.99,NE,47,0.0,2.0,91,0.00,,FEW021,0.13,0.00,VWS V14.01,2013-09-15 12:41:00,
2013-09-15 08:46:00,81.3,78.4,30.00,NE,46,1.0,2.0,91,0.00,,FEW021,0.13,0.00,VWS V14.01,2013-09-15 12:46:00,
2013-09-15 08:51:00,81.3,78.4,30.00,NE,51,1.0,2.0,91,0.00,,FEW021,0.13,0.00,VWS V14.01,2013-09-15 12:51:00,
2013-09-15 08:56:00,81.3,78.4,30.00,ENE,74,1.0,2.0,91,0.00,,FEW021,0.13,0.00,VWS V14.01,2013-09-15 12:56:00,
2013-09-15 09:01:00,81.4,78.5,30.00,NE,47,1.0,3.0,91,0.00,,FEW021,0.13,0.00,VWS V14.01,2013-09-15 13:01:00,
2013-09-15 09:06:00,81.4,78.5,30.01,NE,47,1.0,3.0,91,0.00,,FEW021,0.13,0.00,VWS V14.01,2013-09-15 13:06:00,
2013-09-15 09:11:00,81.4,78.2,30.01,NE,52,1.0,5.0,90,0.00,,FEW021,0.13,0.00,VWS V14.01,2013-09-15 13:11:00,
2013-09-15 09:16:00,81.4,78.2,30.00,ENE,67,2.0,7.0,90,0.00,,FEW021,0.13,0.00,VWS V14.01,2013-09-15 13:16:00,
2013-09-15 09:21:00,81.4,78.2,30.01,ENE,70,2.0,3.0,90,0.00,,FEW021,0.13,0.00,VWS V14.01,2013-09-15 13:21:00,
2013-09-15 09:26:00,81.5,78.3,30.01,ENE,69,1.0,3.0,90,0.00,,FEW021,0.13,0.00,VWS V14.01,2013-09-15 13:26:00,
2013-09-15 09:31:00,81.6,78.4,30.01,East,91,1.0,4.0,90,0.01,,FEW021,0.14,0.00,VWS V14.01,2013-09-15 13:31:00,
2013-09-15 09:36:00,81.5,78.3,30.02,East,90,2.0,2.0,90,0.01,,FEW021,0.14,0.00,VWS V14.01,2013-09-15 13:36:00,
2013-09-15 09:41:00,81.2,77.7,30.02,East,91,1.0,4.0,89,0.01,,FEW021,0.14,0.00,VWS V14.01,2013-09-15 13:41:00,
2013-09-15 09:46:00,81.0,77.5,30.02,ENE,71,2.0,6.0,89,0.01,,FEW021,0.14,0.00,VWS V14.01,2013-09-15 13:46:00,
2013-09-15 09:51:00,80.9,77.0,30.02,ENE,72,3.0,4.0,88,0.01,,FEW021,0.14,0.00,VWS V14.01,2013-09-15 13:51:00,
2013-09-15 09:56:00,80.8,76.9,30.02,NE,48,2.0,6.0,88,0.01,,FEW021,0.14,0.00,VWS V14.01,2013-09-15 13:56:00,
2013-09-15 10:01:00,80.7,76.8,30.02,East,86,1.0,3.0,88,0.01,,FEW021,0.14,0.00,VWS V14.01,2013-09-15 14:01:00,
2013-09-15 10:06:00,80.6,76.7,30.02,NE,53,5.0,8.0,88,0.01,,FEW021,0.14,0.00,VWS V14.01,2013-09-15 14:06:00,
2013-09-15 10:11:00,80.6,77.4,30.02,NE,34,8.0,8.0,90,0.01,,FEW021,0.14,0.00,VWS V14.01,2013-09-15 14:11:00,
2013-09-15 10:16:00,80.6,77.4,30.02,NE,44,3.0,9.0,90,0.01,,FEW021,0.14,0.00,VWS V14.01,2013-09-15 14:16:00,
2013-09-15 10:21:00,80.8,77.9,30.02,ENE,69,4.0,8.0,91,0.01,,FEW021,0.14,0.00,VWS V14.01,2013-09-15 14:21:00,
2013-09-15 10:26:00,81.2,78.3,30.04,NE,34,3.0,8.0,91,0.01,,FEW021,0.14,0.00,VWS V14.01,2013-09-15 14:26:00,
2013-09-15 10:31:00,81.5,77.6,30.04,ENE,76,4.0,9.0,88,0.00,,FEW021,0.14,0.00,VWS V14.01,2013-09-15 14:31:00,
2013-09-15 10:36:00,81.5,77.9,30.04,NNE,30,8.0,11.0,89,0.00,,FEW021,0.14,0.00,VWS V14.01,2013-09-15 14:36:00,
2013-09-15 10:41:00,82.0,78.4,30.03,NE,46,6.0,10.0,89,0.00,,FEW021,0.14,0.00,VWS V14.01,2013-09-15 14:41:00,
2013-09-15 10:46:00,82.6,78.7,30.04,NE,36,4.0,10.0,88,0.00,,FEW021,0.14,0.00,VWS V14.01,2013-09-15 14:46:00,
2013-09-15 10:51:00,83.0,78.4,30.04,NE,49,4.0,9.0,86,0.00,,FEW021,0.14,0.00,VWS V14.01,2013-09-15 14:51:00,
2013-09-15 10:56:00,83.3,78.3,30.03,NE,46,4.0,11.0,85,0.00,,FEW021,0.14,0.00,VWS V14.01,2013-09-15 14:56:00,
2013-09-15 11:01:00,84.0,78.7,30.03,NNE,28,8.0,12.0,84,0.00,,FEW021,0.14,0.00,VWS V14.01,2013-09-15 15:01:00,
2013-09-15 11:06:00,84.5,78.4,30.03,ENE,74,5.0,10.0,82,0.00,,FEW021,0.14,0.00,VWS V14.01,2013-09-15 15:06:00,
2013-09-15 11:11:00,84.5,78.0,30.03,NNE,30,7.0,12.0,81,0.00,,FEW021,0.14,0.00,VWS V14.01,2013-09-15 15:11:00,
2013-09-15 11:16:00,84.0,77.5,30.03,East,91,5.0,9.0,81,0.00,,FEW021,0.14,0.00,VWS V14.01,2013-09-15 15:16:00,
2013-09-15 11:21:00,83.6,77.5,30.05,NE,44,6.0,8.0,82,0.00,,FEW021,0.14,0.00,VWS V14.01,2013-09-15 15:21:00,
2013-09-15 11:26:00,82.9,77.9,30.04,NE,44,9.0,14.0,85,0.00,,FEW021,0.14,0.00,VWS V14.01,2013-09-15 15:26:00,
2013-09-15 11:31:00,82.5,77.2,30.02,NNE,28,14.0,17.0,84,0.00,,FEW021,0.14,0.00,VWS V14.01,2013-09-15 15:31:00,
2013-09-15 11:36:00,82.1,77.5,30.04,ENE,68,8.0,16.0,86,0.00,,FEW021,0.14,0.00,VWS V14.01,2013-09-15 15:36:00,
2013-09-15 11:41:00,81.3,75.3,30.05,ENE,66,9.0,12.0,82,0.00,,FEW021,0.14,0.00,VWS V14.01,2013-09-15 15:41:00,
2013-09-15 11:46:00,80.6,75.0,30.04,ENE,67,3.0,9.0,83,0.01,,FEW021,0.15,0.00,VWS V14.01,2013-09-15 15:46:00,
2013-09-15 11:51:00,80.1,75.2,30.05,ENE,67,2.0,14.0,85,0.01,,FEW021,0.15,0.00,VWS V14.01,2013-09-15 15:51:00,
2013-09-15 11:56:00,80.0,75.4,30.06,SSE,166,7.0,13.0,86,0.01,,FEW021,0.15,0.00,VWS V14.01,2013-09-15 15:56:00,
2013-09-15 12:01:00,79.1,73.8,30.06,SE,140,5.0,12.0,84,0.01,,FEW021,0.15,0.00,VWS V14.01,2013-09-15 16:01:00,
2013-09-15 12:06:00,78.6,73.4,30.07,North,360,8.0,13.0,84,0.02,,FEW021,0.16,0.00,VWS V14.01,2013-09-15 16:06:00,
2013-09-15 12:11:00,77.4,72.9,30.07,SW,216,8.0,11.0,86,0.03,,FEW021,0.17,0.00,VWS V14.01,2013-09-15 16:11:00,
2013-09-15 12:16:00,76.2,72.1,30.07,SW,216,7.0,11.0,87,0.04,,FEW021,0.18,0.00,VWS V14.01,2013-09-15 16:16:00,
2013-09-15 12:21:00,75.7,71.9,30.06,WSW,240,4.0,10.0,88,0.04,,FEW021,0.18,0.00,VWS V14.01,2013-09-15 16:21:00,
2013-09-15 12:26:00,75.5,71.7,30.06,West,266,2.0,5.0,88,0.58,,FEW021,0.72,7.00,VWS V14.01,2013-09-15 16:26:00,
2013-09-15 12:31:00,75.1,71.6,30.05,SW,223,0.0,4.0,89,0.58,,FEW021,0.72,9.00,VWS V14.01,2013-09-15 16:31:00,
2013-09-15 12:36:00,74.7,71.2,30.05,South,172,0.0,4.0,89,0.58,,FEW021,0.72,9.00,VWS V14.01,2013-09-15 16:36:00,
2013-09-15 12:41:00,74.5,71.4,30.05,ENE,71,2.0,2.0,90,0.58,,FEW021,0.72,9.00,VWS V14.01,2013-09-15 16:41:00,
2013-09-15 12:46:00,74.6,71.8,30.05,NE,50,1.0,2.0,91,0.57,,FEW021,0.72,9.00,VWS V14.01,2013-09-15 16:46:00,
2013-09-15 12:51:00,74.6,71.8,30.04,NE,34,1.0,3.0,91,0.57,,FEW021,0.72,9.00,VWS V14.01,2013-09-15 16:51:00,
2013-09-15 12:56:00,74.5,71.7,30.04,NE,34,0.0,1.0,91,0.57,,FEW021,0.72,11.00,VWS V14.01,2013-09-15 16:56:00,
2013-09-15 13:01:00,74.3,71.5,30.04,South,178,2.0,3.0,91,0.57,,FEW021,0.72,11.00,VWS V14.01,2013-09-15 17:01:00,
2013-09-15 13:06:00,74.5,71.7,30.05,WSW,243,3.0,3.0,91,0.57,,FEW021,0.72,11.00,VWS V14.01,2013-09-15 17:06:00,
2013-09-15 13:11:00,74.7,71.9,30.06,West,270,0.0,3.0,91,0.56,,FEW021,0.72,11.00,VWS V14.01,2013-09-15 17:11:00,
2013-09-15 13:16:00,74.8,72.0,30.05,West,270,0.0,1.0,91,0.54,,FEW021,0.72,12.00,VWS V14.01,2013-09-15 17:16:00,
2013-09-15 13:21:00,74.9,72.4,30.05,West,270,0.0,0.0,92,0.54,,FEW021,0.72,12.00,VWS V14.01,2013-09-15 17:21:00,
2013-09-15 13:26:00,74.9,72.4,30.05,West,270,2.0,3.0,92,0.00,,FEW021,0.72,14.00,VWS V14.01,2013-09-15 17:26:00,
2013-09-15 13:31:00,74.9,72.4,30.05,West,269,0.0,2.0,92,0.00,,FEW021,0.72,14.00,VWS V14.01,2013-09-15 17:31:00,
2013-09-15 13:36:00,74.9,72.4,30.04,West,271,0.0,0.0,92,0.00,,FEW021,0.72,16.00,VWS V14.01,2013-09-15 17:36:00,
2013-09-15 13:41:00,74.9,72.4,30.04,West,273,0.0,1.0,92,0.00,,FEW021,0.72,16.00,VWS V14.01,2013-09-15 17:41:00,
2013-09-15 13:46:00,74.8,72.0,30.04,West,274,0.0,0.0,91,0.00,,FEW021,0.72,16.00,VWS V14.01,2013-09-15 17:46:00,
2013-09-15 13:51:00,74.8,72.3,30.03,NW,323,3.0,3.0,92,0.01,,FEW021,0.73,18.00,VWS V14.01,2013-09-15 17:51:00,
2013-09-15 13:56:00,74.9,72.4,30.03,NW,323,1.0,2.0,92,0.02,,FEW021,0.74,18.00,VWS V14.01,2013-09-15 17:56:00,
2013-09-15 14:01:00,74.9,72.4,30.03,NW,323,1.0,3.0,92,0.02,,FEW021,0.74,21.00,VWS V14.01,2013-09-15 18:01:00,
2013-09-15 14:06:00,74.9,72.4,30.02,NW,323,1.0,2.0,92,0.02,,FEW021,0.74,25.00,VWS V14.01,2013-09-15 18:06:00,
2013-09-15 14:11:00,74.8,72.3,30.02,NW,323,0.0,0.0,92,0.03,,FEW021,0.75,28.00,VWS V14.01,2013-09-15 18:11:00,
2013-09-15 14:16:00,74.9,72.4,30.02,NW,323,0.0,0.0,92,0.03,,FEW021,0.75,33.00,VWS V14.01,2013-09-15 18:16:00,
2013-09-15 14:21:00,75.0,72.5,30.02,NW,323,0.0,0.0,92,0.03,,FEW021,0.75,37.00,VWS V14.01,2013-09-15 18:21:00,
2013-09-15 14:26:00,75.1,72.9,30.01,NW,323,0.0,1.0,93,0.04,,FEW021,0.76,40.00,VWS V14.01,2013-09-15 18:26:00,
2013-09-15 14:31:00,75.2,73.0,30.01,NW,323,0.0,1.0,93,0.04,,FEW021,0.76,46.00,VWS V14.01,2013-09-15 18:31:00,
2013-09-15 14:36:00,75.2,73.0,30.01,NW,323,1.0,2.0,93,0.04,,FEW021,0.76,51.00,VWS V14.01,2013-09-15 18:36:00,
2013-09-15 14:41:00,75.4,73.2,30.00,SE,146,1.0,2.0,93,0.04,,FEW021,0.76,56.00,VWS V14.01,2013-09-15 18:41:00,
2013-09-15 14:46:00,75.6,73.4,30.01,SE,145,0.0,0.0,93,0.04,,FEW021,0.76,60.00,VWS V14.01,2013-09-15 18:46:00,
2013-09-15 14:51:00,75.8,73.9,30.01,SW,217,3.0,4.0,94,0.03,,FEW021,0.76,63.00,VWS V14.01,2013-09-15 18:51:00,
2013-09-15 14:56:00,76.1,73.9,30.00,SW,217,3.0,5.0,93,0.03,,FEW021,0.76,70.00,VWS V14.01,2013-09-15 18:56:00,
2013-09-15 15:01:00,76.4,74.6,30.00,SW,225,2.0,3.0,94,0.02,,FEW021,0.76,77.00,VWS V14.01,2013-09-15 19:01:00,
2013-09-15 15:06:00,76.8,74.9,30.00,WSW,241,2.0,3.0,94,0.02,,FEW021,0.76,84.00,VWS V14.01,2013-09-15 19:06:00,
2013-09-15 15:11:00,77.1,75.2,30.00,WSW,241,1.0,2.0,94,0.02,,FEW021,0.76,93.00,VWS V14.01,2013-09-15 19:11:00,
2013-09-15 15:16:00,77.5,75.6,30.00,WSW,242,1.0,3.0,94,0.01,,FEW021,0.76,104.00,VWS V14.01,2013-09-15 19:16:00,
2013-09-15 15:18:00,77.6,75.7,30.00,WSW,244,3.0,3.0,94,0.01,,FEW021,0.76,107.00,VWS V14.01,2013-09-15 19:18:00,
2013-09-15 15:23:00,77.9,75.7,30.00,West,275,0.0,3.0,93,0.01,,FEW021,0.76,121.00,VWS V14.01,2013-09-15 19:23:00,
2013-09-15 15:28:00,78.0,75.8,29.99,West,275,0.0,1.0,93,0.00,,FEW021,0.76,132.00,VWS V14.01,2013-09-15 19:28:00,
2013-09-15 15:33:00,78.0,75.8,29.99,West,275,0.0,0.0,93,0.00,,FEW021,0.76,142.00,VWS V14.01,2013-09-15 19:33:00,
2013-09-15 15:38:00,78.4,76.2,29.99,West,275,0.0,0.0,93,0.00,,FEW021,0.76,151.00,VWS V14.01,2013-09-15 19:38:00,
2013-09-15 15:43:00,78.7,76.5,29.99,West,275,0.0,0.0,93,0.00,,FEW021,0.76,158.00,VWS V14.01,2013-09-15 19:43:00,
2013-09-15 15:48:00,79.0,76.8,29.99,NW,322,3.0,3.0,93,0.00,,FEW021,0.76,169.00,VWS V14.01,2013-09-15 19:48:00,
2013-09-15 15:53:00,79.3,77.1,29.99,NNW,336,0.0,2.0,93,0.00,,FEW021,0.76,185.00,VWS V14.01,2013-09-15 19:53:00,
2013-09-15 15:58:00,79.7,77.5,29.99,NNW,336,1.0,2.0,93,0.00,,FEW021,0.76,200.00,VWS V14.01,2013-09-15 19:58:00,
2013-09-15 16:03:00,79.9,77.4,30.00,NNW,339,1.0,2.0,92,0.00,,FEW021,0.76,207.00,VWS V14.01,2013-09-15 20:03:00,
2013-09-15 16:08:00,80.1,77.6,30.00,North,10,2.0,3.0,92,0.00,,FEW021,0.76,206.00,VWS V14.01,2013-09-15 20:08:00,
2013-09-15 16:13:00,80.2,77.7,30.00,NNE,19,1.0,2.0,92,0.00,,FEW021,0.76,199.00,VWS V14.01,2013-09-15 20:13:00,
2013-09-15 16:18:00,80.4,77.9,30.00,NNE,19,1.0,2.0,92,0.00,,FEW021,0.76,183.00,VWS V14.01,2013-09-15 20:18:00,
2013-09-15 16:23:00,80.5,78.0,30.00,NNE,19,0.0,2.0,92,0.00,,FEW021,0.76,163.00,VWS V14.01,2013-09-15 20:23:00,
2013-09-15 16:28:00,80.5,77.6,30.00,NNE,19,1.0,1.0,91,0.00,,FEW021,0.76,151.00,VWS V14.01,2013-09-15 20:28:00,
2013-09-15 16:33:00,80.6,77.7,30.00,NNW,342,1.0,3.0,91,0.00,,FEW021,0.76,144.00,VWS V14.01,2013-09-15 20:33:00,
2013-09-15 16:38:00,80.7,77.8,30.00,NNW,342,3.0,3.0,91,0.00,,FEW021,0.76,176.00,VWS V14.01,2013-09-15 20:38:00,
2013-09-15 16:43:00,80.9,78.0,30.00,NNW,342,1.0,3.0,91,0.00,,FEW021,0.76,171.00,VWS V14.01,2013-09-15 20:43:00,
2013-09-15 16:48:00,81.1,78.2,30.00,NNW,340,2.0,3.0,91,0.00,,FEW021,0.76,167.00,VWS V14.01,2013-09-15 20:48:00,
2013-09-15 16:53:00,81.2,78.3,30.00,NNW,340,2.0,2.0,91,0.00,,FEW021,0.76,160.00,VWS V14.01,2013-09-15 20:53:00,
2013-09-15 16:57:00,81.2,78.3,29.99,NNW,340,1.0,3.0,91,0.00,,FEW021,0.76,163.00,VWS V14.01,2013-09-15 20:57:00,
2013-09-15 17:02:00,81.3,78.4,29.99,NNW,340,1.0,3.0,91,0.00,,FEW021,0.76,155.00,VWS V14.01,2013-09-15 21:02:00,
2013-09-15 17:07:00,81.4,78.5,30.00,NNW,340,0.0,3.0,91,0.00,,FEW021,0.76,176.00,VWS V14.01,2013-09-15 21:07:00,
2013-09-15 17:12:00,81.5,78.3,30.00,NNW,343,3.0,3.0,90,0.00,,FEW021,0.76,162.00,VWS V14.01,2013-09-15 21:12:00,
2013-09-15 17:17:00,81.6,78.7,30.00,NNW,339,0.0,4.0,91,0.00,,FEW021,0.76,169.00,VWS V14.01,2013-09-15 21:17:00,
2013-09-15 17:22:00,81.8,78.6,30.00,NW,323,0.0,2.0,90,0.00,,FEW021,0.76,155.00,VWS V14.01,2013-09-15 21:22:00,
2013-09-15 17:27:00,81.8,78.6,30.00,NW,323,0.0,2.0,90,0.00,,FEW021,0.76,141.00,VWS V14.01,2013-09-15 21:27:00,
2013-09-15 17:32:00,81.7,78.5,30.00,NW,323,0.0,2.0,90,0.00,,FEW021,0.76,125.00,VWS V14.01,2013-09-15 21:32:00,
2013-09-15 17:37:00,81.8,78.6,30.00,NW,323,0.0,2.0,90,0.00,,FEW021,0.76,113.00,VWS V14.01,2013-09-15 21:37:00,
2013-09-15 17:42:00,81.9,78.7,30.01,NW,323,2.0,2.0,90,0.00,,FEW021,0.76,100.00,VWS V14.01,2013-09-15 21:42:00,
2013-09-15 17:47:00,82.0,78.8,30.01,NW,324,1.0,2.0,90,0.00,,FEW021,0.76,91.00,VWS V14.01,2013-09-15 21:47:00,
2013-09-15 17:52:00,82.0,78.8,30.01,NW,324,1.0,3.0,90,0.00,,FEW021,0.76,84.00,VWS V14.01,2013-09-15 21:52:00,
2013-09-15 17:57:00,81.9,78.7,30.01,NW,324,1.0,3.0,90,0.00,,FEW021,0.76,79.00,VWS V14.01,2013-09-15 21:57:00,
2013-09-15 18:02:00,81.8,78.6,30.01,NW,324,1.0,2.0,90,0.00,,FEW021,0.76,76.00,VWS V14.01,2013-09-15 22:02:00,
2013-09-15 18:07:00,81.8,78.6,30.01,NW,324,1.0,3.0,90,0.00,,FEW021,0.76,74.00,VWS V14.01,2013-09-15 22:07:00,
2013-09-15 18:12:00,81.8,78.6,30.00,NW,324,1.0,2.0,90,0.00,,FEW021,0.76,70.00,VWS V14.01,2013-09-15 22:12:00,
2013-09-15 18:17:00,81.9,78.7,30.00,NW,324,1.0,3.0,90,0.00,,FEW021,0.76,67.00,VWS V14.01,2013-09-15 22:17:00,
2013-09-15 18:22:00,81.9,78.7,30.00,NW,324,1.0,1.0,90,0.00,,FEW021,0.76,65.00,VWS V14.01,2013-09-15 22:22:00,
2013-09-15 18:27:00,81.9,78.7,30.00,NW,324,2.0,2.0,90,0.00,,FEW021,0.76,65.00,VWS V14.01,2013-09-15 22:27:00,
2013-09-15 18:32:00,81.8,78.6,30.01,NW,324,1.0,2.0,90,0.00,,FEW021,0.76,62.00,VWS V14.01,2013-09-15 22:32:00,
2013-09-15 18:37:00,81.8,78.9,30.01,NW,324,2.0,2.0,91,0.00,,FEW021,0.76,56.00,VWS V14.01,2013-09-15 22:37:00,
2013-09-15 18:42:00,81.8,78.9,30.02,NNW,327,0.0,4.0,91,0.00,,FEW021,0.76,49.00,VWS V14.01,2013-09-15 22:42:00,
2013-09-15 18:47:00,81.7,78.8,30.02,NNW,327,1.0,2.0,91,0.00,,FEW021,0.76,40.00,VWS V14.01,2013-09-15 22:47:00,
2013-09-15 18:52:00,81.6,78.7,30.03,NNW,327,3.0,4.0,91,0.00,,FEW021,0.76,30.00,VWS V14.01,2013-09-15 22:52:00,
2013-09-15 18:57:00,81.5,78.6,30.02,NNW,327,1.0,2.0,91,0.00,,FEW021,0.76,26.00,VWS V14.01,2013-09-15 22:57:00,
2013-09-15 19:02:00,81.4,78.5,30.02,NNW,328,1.0,2.0,91,0.00,,FEW021,0.76,21.00,VWS V14.01,2013-09-15 23:02:00,
2013-09-15 19:07:00,81.3,78.4,30.03,NNW,328,0.0,0.0,91,0.00,,FEW021,0.76,16.00,VWS V14.01,2013-09-15 23:07:00,
2013-09-15 19:12:00,81.3,78.4,30.04,NNW,340,1.0,2.0,91,0.00,,FEW021,0.76,9.00,VWS V14.01,2013-09-15 23:12:00,
2013-09-15 19:17:00,81.2,78.7,30.04,NNE,21,0.0,1.0,92,0.00,,FEW021,0.76,0.00,VWS V14.01,2013-09-15 23:17:00,
2013-09-15 19:22:00,81.2,78.7,30.04,NNE,21,0.0,1.0,92,0.00,,FEW021,0.76,0.00,VWS V14.01,2013-09-15 23:22:00,
2013-09-15 19:27:00,81.2,78.7,30.04,NNE,24,2.0,3.0,92,0.00,,FEW021,0.76,0.00,VWS V14.01,2013-09-15 23:27:00,
2013-09-15 19:32:00,81.2,78.7,30.03,NNE,29,0.0,2.0,92,0.00,,FEW021,0.76,0.00,VWS V14.01,2013-09-15 23:32:00,
2013-09-15 19:37:00,81.1,78.6,30.03,NNE,29,0.0,0.0,92,0.00,,FEW021,0.76,0.00,VWS V14.01,2013-09-15 23:37:00,
2013-09-15 19:42:00,81.0,78.5,30.03,NNE,29,0.0,0.0,92,0.00,,FEW021,0.76,0.00,VWS V14.01,2013-09-15 23:42:00,
2013-09-15 19:47:00,81.0,78.5,30.03,NNE,29,1.0,2.0,92,0.00,,FEW021,0.76,0.00,VWS V14.01,2013-09-15 23:47:00,
2013-09-15 19:52:00,80.9,78.4,30.03,NE,37,3.0,6.0,92,0.00,,FEW021,0.76,0.00,VWS V14.01,2013-09-15 23:52:00,
2013-09-15 19:57:00,80.7,78.2,30.03,NE,38,1.0,2.0,92,0.00,,FEW021,0.76,0.00,VWS V14.01,2013-09-15 23:57:00,
2013-09-15 20:02:00,80.6,77.7,30.03,NE,45,3.0,3.0,91,0.00,,FEW021,0.76,0.00,VWS V14.01,2013-09-16 00:02:00,
2013-09-15 20:07:00,80.6,77.7,30.03,NE,44,3.0,4.0,91,0.00,,FEW021,0.76,0.00,VWS V14.01,2013-09-16 00:07:00,
2013-09-15 20:12:00,80.6,77.7,30.03,NE,40,3.0,4.0,91,0.00,,FEW021,0.76,0.00,VWS V14.01,2013-09-16 00:12:00,
2013-09-15 20:17:00,80.7,77.5,30.03,NE,40,1.0,3.0,90,0.00,,FEW021,0.76,0.00,VWS V14.01,2013-09-16 00:17:00,
2013-09-15 20:22:00,80.8,77.3,30.03,NE,40,3.0,3.0,89,0.00,,FEW021,0.76,0.00,VWS V14.01,2013-09-16 00:22:00,
2013-09-15 20:27:00,80.8,77.3,30.03,NE,36,2.0,5.0,89,0.00,,FEW021,0.76,0.00,VWS V14.01,2013-09-16 00:27:00,
2013-09-15 20:32:00,80.7,76.5,30.03,NNE,32,3.0,6.0,87,0.00,,FEW021,0.76,0.00,VWS V14.01,2013-09-16 00:32:00,
2013-09-15 20:37:00,80.5,75.6,30.03,NE,42,2.0,7.0,85,0.00,,FEW021,0.76,0.00,VWS V14.01,2013-09-16 00:37:00,
2013-09-15 20:42:00,80.5,75.2,30.03,NNE,30,4.0,4.0,84,0.00,,FEW021,0.76,0.00,VWS V14.01,2013-09-16 00:42:00,
2013-09-15 20:47:00,80.4,74.8,30.03,NE,34,3.0,5.0,83,0.00,,FEW021,0.76,0.00,VWS V14.01,2013-09-16 00:47:00,
2013-09-15 20:52:00,80.4,74.8,30.03,NE,34,1.0,3.0,83,0.00,,FEW021,0.76,0.00,VWS V14.01,2013-09-16 00:52:00,
2013-09-15 20:57:00,80.4,74.4,30.03,NE,38,3.0,6.0,82,0.00,,FEW021,0.76,0.00,VWS V14.01,2013-09-16 00:57:00,
2013-09-15 21:02:00,80.4,74.4,30.03,NE,40,2.0,5.0,82,0.00,,FEW021,0.76,0.00,VWS V14.01,2013-09-16 01:02:00,
2013-09-15 21:07:00,80.4,74.4,30.04,NE,36,4.0,9.0,82,0.00,,FEW021,0.76,0.00,VWS V14.01,2013-09-16 01:07:00,
2013-09-15 21:12:00,80.3,74.7,30.04,ENE,70,5.0,6.0,83,0.00,,FEW021,0.76,0.00,VWS V14.01,2013-09-16 01:12:00,
2013-09-15 21:17:00,80.3,74.7,30.04,NE,39,4.0,8.0,83,0.00,,FEW021,0.76,0.00,VWS V14.01,2013-09-16 01:17:00,
2013-09-15 21:22:00,80.4,74.8,30.04,NE,37,4.0,5.0,83,0.00,,FEW021,0.76,0.00,VWS V14.01,2013-09-16 01:22:00,
2013-09-15 21:27:00,80.4,74.8,30.04,NE,46,3.0,5.0,83,0.00,,FEW021,0.76,0.00,VWS V14.01,2013-09-16 01:27:00,
2013-09-15 21:32:00,80.5,74.9,30.04,NE,43,1.0,3.0,83,0.00,,FEW021,0.76,0.00,VWS V14.01,2013-09-16 01:32:00,
2013-09-15 21:37:00,80.4,74.8,30.05,NE,41,1.0,2.0,83,0.00,,FEW021,0.76,0.00,VWS V14.01,2013-09-16 01:37:00,
2013-09-15 21:42:00,80.3,75.0,30.04,NE,36,3.0,4.0,84,0.00,,FEW021,0.76,0.00,VWS V14.01,2013-09-16 01:42:00,
2013-09-15 21:47:00,80.3,75.0,30.03,NNE,33,1.0,2.0,84,0.00,,FEW021,0.76,0.00,VWS V14.01,2013-09-16 01:47:00,
2013-09-15 21:52:00,80.3,75.4,30.04,NE,38,0.0,3.0,85,0.00,,FEW021,0.76,0.00,VWS V14.01,2013-09-16 01:52:00,
2013-09-15 21:57:00,80.4,75.5,30.04,NE,38,1.0,3.0,85,0.00,,FEW021,0.76,0.00,VWS V14.01,2013-09-16 01:57:00,
2013-09-15 22:02:00,80.4,75.5,30.04,NE,51,1.0,4.0,85,0.00,,FEW021,0.76,0.00,VWS V14.01,2013-09-16 02:02:00,
2013-09-15 22:07:00,80.3,75.7,30.05,ENE,71,1.0,1.0,86,0.00,,FEW021,0.76,0.00,VWS V14.01,2013-09-16 02:07:00,
2013-09-15 22:12:00,80.3,75.7,30.05,ENE,69,3.0,3.0,86,0.00,,FEW021,0.76,0.00,VWS V14.01,2013-09-16 02:12:00,
2013-09-15 22:17:00,80.3,76.1,30.04,NE,38,3.0,4.0,87,0.00,,FEW021,0.76,0.00,VWS V14.01,2013-09-16 02:17:00,
2013-09-15 22:22:00,80.4,76.2,30.04,NE,50,5.0,8.0,87,0.00,,FEW021,0.76,0.00,VWS V14.01,2013-09-16 02:22:00,
2013-09-15 22:27:00,80.6,76.4,30.05,NE,46,2.0,5.0,87,0.00,,FEW021,0.76,0.00,VWS V14.01,2013-09-16 02:27:00,
2013-09-15 22:32:00,80.7,76.5,30.06,ENE,71,1.0,4.0,87,0.00,,FEW021,0.76,0.00,VWS V14.01,2013-09-16 02:32:00,
2013-09-15 22:37:00,80.8,76.9,30.05,NE,36,3.0,9.0,88,0.00,,FEW021,0.76,0.00,VWS V14.01,2013-09-16 02:37:00,
2013-09-15 22:42:00,80.9,76.7,30.05,NE,51,5.0,6.0,87,0.00,,FEW021,0.76,0.00,VWS V14.01,2013-09-16 02:42:00,
2013-09-15 22:47:00,81.1,76.5,30.04,NE,44,3.0,11.0,86,0.00,,FEW021,0.76,0.00,VWS V14.01,2013-09-16 02:47:00,
2013-09-15 22:52:00,81.1,76.2,30.04,East,85,6.0,8.0,85,0.00,,FEW021,0.76,0.00,VWS V14.01,2013-09-16 02:52:00,
2013-09-15 22:57:00,81.1,75.8,30.04,NNE,28,6.0,6.0,84,0.00,,FEW021,0.76,0.00,VWS V14.01,2013-09-16 02:57:00,
2013-09-15 23:02:00,81.1,75.8,30.03,NE,45,3.0,7.0,84,0.00,,FEW021,0.76,0.00,VWS V14.01,2013-09-16 03:02:00,
2013-09-15 23:07:00,81.1,75.4,30.03,NNE,30,3.0,5.0,83,0.00,,FEW021,0.76,0.00,VWS V14.01,2013-09-16 03:07:00,
2013-09-15 23:12:00,81.1,75.4,30.03,East,90,2.0,6.0,83,0.00,,FEW021,0.76,0.00,VWS V14.01,2013-09-16 03:12:00,
2013-09-15 23:17:00,81.2,75.6,30.03,East,95,2.0,5.0,83,0.00,,FEW021,0.76,0.00,VWS V14.01,2013-09-16 03:17:00,
2013-09-15 23:22:00,81.2,75.6,30.03,SSE,148,2.0,5.0,83,0.00,,FEW021,0.76,0.00,VWS V14.01,2013-09-16 03:22:00,
2013-09-15 23:27:00,81.2,75.9,30.03,NE,40,2.0,6.0,84,0.00,,FEW021,0.76,0.00,VWS V14.01,2013-09-16 03:27:00,
2013-09-15 23:32:00,81.1,75.8,30.03,ENE,68,1.0,5.0,84,0.00,,FEW021,0.76,0.00,VWS V14.01,2013-09-16 03:32:00,
2013-09-15 23:37:00,81.0,76.1,30.03,NE,45,4.0,5.0,85,0.00,,FEW021,0.76,0.00,VWS V14.01,2013-09-16 03:37:00,
2013-09-15 23:42:00,80.9,76.3,30.02,NE,40,3.0,5.0,86,0.00,,FEW021,0.76,0.00,VWS V14.01,2013-09-16 03:42:00,
2013-09-15 23:47:00,81.0,76.4,30.02,NE,45,3.0,5.0,86,0.00,,FEW021,0.76,0.00,VWS V14.01,2013-09-16 03:47:00,
2013-09-15 23:52:00,81.0,76.4,30.02,NE,50,1.0,5.0,86,0.00,,FEW021,0.76,0.00,VWS V14.01,2013-09-16 03:52:00,
2013-09-15 23:57:00,81.0,76.4,30.01,East,91,7.0,7.0,86,0.00,,FEW021,0.76,0.00,VWS V14.01,2013-09-16 03:57:00,